Weather History for Mosby, MO

Change the Weather History Date:

Tuesday, January 8, 2013

  Actual Average (KMKC) Record (KMKC)
Temperature  
Mean Temperature 42 °F -  
Max Temperature 53 °F 37 °F 71 °F (2003)
Min Temperature 30 °F 21 °F 10 °F (1999)
Degree Days  
Heating Degree Days 24    
Moisture  
Dew Point 31 °F    
Average Humidity 69    
Maximum Humidity 87    
Minimum Humidity 41    
Precipitation  
Precipitation 0.00 in - - ()
Sea Level Pressure  
Sea Level Pressure 30.03 in    
Wind  
Wind Speed 5 mph (South)    
Max Wind Speed 15 mph    
Max Gust Speed 23 mph    
Visibility 10 miles    
Events      
Averages and records for this station are not official NWS values.
T = Trace of Precipitation, MM = Missing Value Source: NWS Daily Summary

Daily Weather History Graph

Daily Weather History Graph

Search for Another Location

Airport:

Trip Planner

Search our weather history database for the weather conditions in past years. The results will help you decide how hot, cold, wet, or windy it might be!

Date:

Astronomy

Jan. 08, 2013 Rise Set
Actual Time 7:37 AM CST 5:11 PM CST
Civil Twilight 7:07 AM CST 5:41 PM CST
Nautical Twilight 6:34 AM CST 6:14 PM CST
Astronomical Twilight 6:01 AM CST 6:46 PM CST
Moon 4:11 AM CST (1/8) 2:14 PM CST (1/8)
Length of Visible Light 10h 33m
Length of Day
9h 34m
Waning Crescent, 13% of the Moon is Illuminated
Jan 8
Waning Crescent
Jan 11
New
Jan 18
First Quarter
Jan 26
Full
Feb 3
Last Quarter

Hourly Weather History & Observations

Time (CST) Temp. Windchill Dew Point Humidity Pressure Visibility Wind Dir Wind Speed Gust Speed Precip Events Conditions
12:15 AM 37.4 °F 34.9 °F 28.4 °F 70% 30.05 in 10.0 mi South 3.5 mph - N/A   Clear
12:35 AM 37.4 °F 32.8 °F 30.2 °F 75% 30.04 in 10.0 mi SSE 5.8 mph - N/A   Clear
1:15 AM 33.8 °F - 28.4 °F 81% 30.05 in 10.0 mi Calm Calm - N/A   Clear
1:35 AM 33.8 °F 30.8 °F 28.4 °F 81% 30.06 in 10.0 mi NE 3.5 mph - N/A   Clear
1:55 AM 32.0 °F 28.7 °F 28.4 °F 87% 30.05 in 10.0 mi ESE 3.5 mph - N/A   Clear
2:15 AM 33.8 °F 28.6 °F 30.2 °F 87% 30.06 in 10.0 mi ESE 5.8 mph - N/A   Clear
2:35 AM 33.8 °F 28.6 °F 28.4 °F 81% 30.06 in 10.0 mi SE 5.8 mph - N/A   Clear
2:55 AM 33.8 °F 28.6 °F 28.4 °F 81% 30.06 in 10.0 mi SE 5.8 mph - N/A   Clear
3:15 AM 32.0 °F - 28.4 °F 87% 30.06 in 10.0 mi Calm Calm - N/A   Clear
3:35 AM 32.0 °F - 28.4 °F 87% 30.05 in 10.0 mi Calm Calm - N/A   Clear
3:55 AM 30.2 °F - 26.6 °F 86% 30.05 in 10.0 mi Calm Calm - N/A   Clear
4:15 AM 32.0 °F 27.5 °F 28.4 °F 87% 30.04 in 10.0 mi SE 4.6 mph - N/A   Clear
4:35 AM 32.0 °F 28.7 °F 28.4 °F 87% 30.04 in 10.0 mi SE 3.5 mph - N/A   Clear
4:55 AM 32.0 °F 27.5 °F 28.4 °F 87% 30.04 in 10.0 mi ESE 4.6 mph - N/A   Clear
5:15 AM 32.0 °F - 28.4 °F 87% 30.04 in 10.0 mi Calm Calm - N/A   Clear
5:35 AM 32.0 °F 28.7 °F 28.4 °F 87% 30.04 in 10.0 mi ESE 3.5 mph - N/A   Clear
5:55 AM 32.0 °F 28.7 °F 28.4 °F 87% 30.03 in 10.0 mi SE 3.5 mph - N/A   Clear
6:15 AM 32.0 °F 27.5 °F 28.4 °F 87% 30.03 in 10.0 mi SSE 4.6 mph - N/A   Clear
6:35 AM 32.0 °F 26.4 °F 28.4 °F 87% 30.03 in 10.0 mi SE 5.8 mph - N/A   Clear
6:55 AM 32.0 °F 26.4 °F 28.4 °F 87% 30.02 in 10.0 mi SSE 5.8 mph - N/A   Clear
7:15 AM 33.8 °F 29.6 °F 30.2 °F 87% 30.03 in 10.0 mi SE 4.6 mph - N/A   Clear
7:35 AM 33.8 °F 28.6 °F 30.2 °F 87% 30.03 in 10.0 mi SSE 5.8 mph - N/A   Clear
7:55 AM 33.8 °F 30.8 °F 30.2 °F 87% 30.03 in 10.0 mi SE 3.5 mph - N/A   Clear
8:15 AM 33.8 °F - 30.2 °F 87% 30.04 in 10.0 mi Calm Calm - N/A   Clear
8:35 AM 33.8 °F 30.8 °F 30.2 °F 87% 30.04 in 10.0 mi SSE 3.5 mph - N/A   Clear
8:55 AM 35.6 °F 31.7 °F 30.2 °F 81% 30.04 in 10.0 mi SSE 4.6 mph - N/A   Clear
9:15 AM 37.4 °F 33.8 °F 30.2 °F 75% 30.04 in 10.0 mi SE 4.6 mph - N/A   Unknown
9:35 AM 37.4 °F - 30.2 °F 75% 30.04 in 10.0 mi Calm Calm - N/A   Clear
10:15 AM 41.0 °F 36.4 °F 30.2 °F 65% 30.05 in 10.0 mi SSE 6.9 mph - N/A   Clear
10:35 AM 41.0 °F 37.1 °F 30.2 °F 65% 30.05 in 10.0 mi South 5.8 mph - N/A   Clear
10:55 AM 41.0 °F 38.0 °F 30.2 °F 65% 30.04 in 10.0 mi SSE 4.6 mph - N/A   Clear
11:15 AM 44.6 °F 40.2 °F 32.0 °F 61% 30.03 in 10.0 mi South 8.1 mph - N/A   Clear
11:35 AM 46.4 °F 41.1 °F 32.0 °F 57% 30.02 in 10.0 mi SSW 11.5 mph 16.1 mph N/A   Clear
11:55 AM 48.2 °F - 32.0 °F 54% 30.01 in 10.0 mi South 15.0 mph - N/A   Clear
12:15 PM 50.0 °F - 32.0 °F 50% 30.00 in 10.0 mi South 12.7 mph 17.3 mph N/A   Clear
12:35 PM 50.0 °F - 32.0 °F 50% 29.98 in 10.0 mi South 15.0 mph 23.0 mph N/A   Clear
12:55 PM 50.0 °F - 32.0 °F 50% 29.97 in 10.0 mi South 11.5 mph 20.7 mph N/A   Clear
1:15 PM 51.8 °F - 32.0 °F 47% 29.97 in 10.0 mi SSW 12.7 mph - N/A   Clear
1:35 PM 51.8 °F - 32.0 °F 47% 29.98 in 10.0 mi SSW 8.1 mph 18.4 mph N/A   Clear
1:55 PM 51.8 °F - 32.0 °F 47% 29.97 in 10.0 mi SSW 11.5 mph 19.6 mph N/A   Clear
2:15 PM 53.6 °F - 32.0 °F 44% 29.97 in 10.0 mi SSW 10.4 mph - N/A   Clear
2:35 PM 53.6 °F - 30.2 °F 41% 29.98 in 10.0 mi SSW 10.4 mph - N/A   Scattered Clouds
2:55 PM 51.8 °F - 32.0 °F 47% 29.98 in 10.0 mi SSW 12.7 mph 17.3 mph N/A   Overcast
3:15 PM 51.8 °F - 32.0 °F 47% 29.98 in 10.0 mi SSW 9.2 mph - N/A   Mostly Cloudy
3:35 PM 53.6 °F - 32.0 °F 44% 29.97 in 10.0 mi South 10.4 mph 18.4 mph N/A   Scattered Clouds
3:55 PM 53.6 °F - 32.0 °F 44% 29.97 in 10.0 mi SSW 11.5 mph - N/A   Scattered Clouds
4:15 PM 53.6 °F - 32.0 °F 44% 29.96 in 10.0 mi South 10.4 mph - N/A   Clear
4:35 PM 51.8 °F - 32.0 °F 47% 29.97 in 10.0 mi South 8.1 mph - N/A   Clear
4:55 PM 50.0 °F - 32.0 °F 50% 29.98 in 10.0 mi South 8.1 mph - N/A   Clear
5:15 PM 50.0 °F - 32.0 °F 50% 29.99 in 10.0 mi South 4.6 mph - N/A   Clear
5:35 PM 48.2 °F - 32.0 °F 54% 30.00 in 10.0 mi Calm Calm - N/A   Scattered Clouds
5:55 PM 48.2 °F - 32.0 °F 54% 30.01 in 10.0 mi South 5.8 mph - N/A   Mostly Cloudy
6:15 PM 48.2 °F - 33.8 °F 58% 30.02 in 10.0 mi South 3.5 mph - N/A   Scattered Clouds
6:35 PM 46.4 °F 43.5 °F 33.8 °F 62% 30.03 in 10.0 mi SSW 5.8 mph - N/A   Clear
6:55 PM 46.4 °F 44.3 °F 33.8 °F 62% 30.04 in 10.0 mi SSW 4.6 mph - N/A   Clear
7:15 PM 46.4 °F 45.2 °F 33.8 °F 62% 30.04 in 10.0 mi South 3.5 mph - N/A   Clear
7:35 PM 46.4 °F 43.5 °F 33.8 °F 62% 30.05 in 10.0 mi South 5.8 mph - N/A   Clear
7:55 PM 44.6 °F 41.4 °F 33.8 °F 66% 30.05 in 10.0 mi South 5.8 mph - N/A   Clear
8:15 PM 44.6 °F - 33.8 °F 66% 30.07 in 10.0 mi Calm Calm - N/A   Clear
8:35 PM 44.6 °F - 33.8 °F 66% 30.07 in 10.0 mi Calm Calm - N/A   Clear
8:55 PM 42.8 °F - 33.8 °F 70% 30.08 in 10.0 mi Calm Calm - N/A   Clear
9:15 PM 41.0 °F - 33.8 °F 76% 30.08 in 10.0 mi Calm Calm - N/A   Clear
9:35 PM 35.6 °F - 32.0 °F 87% 30.09 in 10.0 mi Calm Calm - N/A   Clear
9:55 PM 37.4 °F 33.8 °F 32.0 °F 81% 30.11 in 10.0 mi WSW 4.6 mph - N/A   Clear
10:35 PM 42.8 °F 40.1 °F 33.8 °F 70% 30.13 in 10.0 mi WSW 4.6 mph - N/A   Clear
10:55 PM 42.8 °F 41.1 °F 33.8 °F 70% 30.14 in 10.0 mi WSW 3.5 mph - N/A   Clear
11:15 PM 42.8 °F 40.1 °F 32.0 °F 66% 30.14 in 10.0 mi SW 4.6 mph - N/A   Clear
11:35 PM 41.0 °F 39.0 °F 32.0 °F 70% 30.17 in 10.0 mi West 3.5 mph - N/A   Clear